Flag for Germany Weather past 2 weeks in Böblingen, Baden-Württemberg, Germany

Now
64 °F

Scattered clouds.


Feels Like: 64 °F
Forecast: 54 / 72 °F
Wind: 10 mph from Northwest

Location: Stuttgart-Echterdingen

Current Time: Jul 11, 2014 at 11:17:29 AM

Latest Report: Jul 11, 2014 at 10:50 AM


Visibility: N/A

Pressure: 29.92 "Hg

Humidity: 78%

Dew point: 57 °F

Location of BöblingenLocation

Historic Weather in Böblingen — Graph

°F

Böblingen temperature yesterday

Maximum temperature yesterday: 61 °F (at 7:20 PM)
Minimum temperature yesterday: 52 °F (at 4:20 AM)
Average temperature yesterday: 56 °F

Past Weeks' High & Low Weather Summary

 TemperatureHumidityPressure
High86 °F (Jul 4, 2:20 PM)100% (Jul 3, 6:20 AM)30.30 "Hg (Jul 3, 6:20 AM)
Low48 °F (Jun 27, 5:20 AM)24% (Jul 3, 3:50 PM)29.77 "Hg (Jun 29, 4:20 AM)
Average63 °F69%29.96 "Hg
* Reported Jun 26 10:20 AM — Jul 11 10:20 AM, Böblingen, Weather by CustomWeather, © 2014

Note: Actual official high and low records may vary slightly from our data, if they occured in-between our weather recording intervals... More about our weather records

Advertising

Böblingen weather history for previous 24 hours

 ConditionsComfort  
Time TempWeatherWind HumidityBarometerVisibility
10:20 AM
Jul 11
64 °FScattered clouds.6 mph78%29.92 "HgN/A
9:50 AM63 °FScattered clouds.8 mph83%29.92 "HgN/A
9:20 AM63 °FScattered clouds.8 mph88%29.92 "HgN/A
8:50 AM61 °FBroken clouds.9 mph94%29.92 "HgN/A
8:20 AM61 °FPartly sunny.8 mph94%29.92 "Hg6 mi
7:50 AM61 °FPartly sunny.9 mph88%29.92 "Hg6 mi
7:20 AM61 °FPartly sunny.9 mph88%29.92 "Hg6 mi
6:50 AM61 °FPartly sunny.9 mph88%29.89 "Hg6 mi
6:20 AM61 °FPassing clouds.8 mph88%29.89 "Hg5 mi
5:50 AM59 °FPassing clouds.7 mph94%29.89 "Hg5 mi
5:20 AM59 °FPassing clouds.7 mph94%29.89 "Hg4 mi
4:50 AM59 °FPassing clouds.2 mph94%29.89 "Hg5 mi
4:20 AM59 °FPassing clouds.1 mph94%29.89 "Hg5 mi
3:50 AM57 °FPassing clouds.2 mph100%29.89 "Hg5 mi
3:20 AM57 °FPassing clouds.2 mph100%29.89 "Hg6 mi
2:50 AM57 °FPartly cloudy.1 mph94%29.89 "HgN/A
2:20 AM57 °FPartly cloudy.1 mph94%29.89 "HgN/A
1:50 AM57 °FPartly cloudy.1 mph94%29.89 "HgN/A
1:20 AM57 °FPartly cloudy.1 mph94%29.86 "HgN/A
12:50 AM59 °FPartly cloudy.6 mph88%29.86 "HgN/A
12:20 AM59 °FPassing clouds.7 mph88%29.86 "HgN/A
11:50 PM
Jul 10
59 °FPassing clouds.2 mph88%29.86 "HgN/A
11:20 PM59 °FPartly cloudy.2 mph88%29.86 "HgN/A
10:50 PM59 °FRain showers. Passing clouds.5 mph94%29.86 "HgN/A
10:20 PM59 °FRain showers. Partly sunny.2 mph88%29.89 "Hg5 mi
9:50 PM59 °FPartly sunny.3 mph88%29.89 "HgN/A
9:20 PM59 °FLight rain. Partly sunny.2 mph88%29.89 "HgN/A
8:50 PM59 °FPartly sunny.5 mph88%29.89 "HgN/A
8:20 PM61 °FBroken clouds.6 mph77%29.89 "HgN/A
7:50 PM61 °FPartly sunny.5 mph77%29.89 "HgN/A
7:20 PM61 °FPartly sunny.6 mph83%29.89 "HgN/A
6:50 PM59 °FPartly sunny.5 mph88%29.89 "HgN/A
6:20 PM59 °FDrizzle. Broken clouds.6 mph82%29.86 "HgN/A
5:50 PM59 °FBroken clouds.8 mph82%29.86 "HgN/A
5:20 PM59 °FBroken clouds.3 mph88%29.86 "HgN/A
4:50 PM59 °FBroken clouds.3 mph82%29.86 "HgN/A
4:20 PM57 °FScattered showers. Partly sunny.6 mph88%29.86 "HgN/A
3:50 PM57 °FScattered showers. Partly sunny.6 mph88%29.86 "HgN/A
3:20 PM59 °FDrizzle. Partly sunny.2 mph82%29.86 "HgN/A
2:50 PM57 °FDrizzle. Partly sunny.1 mph88%29.86 "HgN/A
2:20 PM57 °FDrizzle. Broken clouds.2 mph88%29.86 "HgN/A
1:50 PM57 °FDrizzle. Broken clouds.2 mph88%29.86 "HgN/A
1:20 PM57 °FDrizzle. Broken clouds.1 mph88%29.83 "HgN/A
12:50 PM55 °FPartly sunny.2 mph94%29.83 "HgN/A
12:20 PM55 °FDrizzle. Partly sunny.2 mph94%29.83 "HgN/A
11:50 AM57 °FPartly sunny.2 mph82%29.83 "HgN/A
11:20 AM57 °FLight rain. Broken clouds.2 mph82%29.80 "HgN/A
Weather by CustomWeather, © 2014

See weather overviewHow to use our weather pages